Fargo, ND

6:52 PM CST on December 15, 2019 (GMT -0600)
Hector International

Weather History for KFAR - October, 2019

Change the Weather History Date:

Tuesday, October 8, 2019

  Actual Average Record
Temperature  
Mean Temperature 60 °F 49 °F  
Max Temperature 70 °F 60 °F 86 °F (2003)
Min Temperature 49 °F 38 °F 16 °F (1917)
Degree Days  
Heating Degree Days 6 16  
Month to date heating degree days 131 116  
Since 1 July heating degree days 346 386  
Cooling Degree Days 0 0  
Month to date cooling degree days 0 0  
Year to date cooling degree days 527 548  
Growing Degree Days 10 (Base 50)    
Moisture  
Dew Point 44 °F    
Average Humidity 59    
Maximum Humidity 74    
Minimum Humidity 40    
Precipitation  
Precipitation 0.00 in 0.07 in 0.98 in (1997)
Month to date precipitation 1.47 0.65  
Year to date precipitation 26.17 19.25  
Snow  
Snow 0.00 in 0.00 in 0.70 in (1927)
Month to date snowfall 0.0 0.0  
Since 1 July snowfall 0.0 0.0  
Since 1 September snowfall 0.0 0.0  
Snow Depth 0.00 in    
Sea Level Pressure  
Sea Level Pressure 29.71 in    
Wind  
Wind Speed 12 mph ()    
Max Wind Speed 24 mph    
Max Gust Speed 33 mph    
Visibility 10.0 miles    
Events      
T = Trace of Precipitation, MM = Missing Value Source: Averaged Metar Reports

Daily Weather History Graph

Daily Weather History Graph

Search for Another Location

Airport or City:

Astronomy

Oct. 08, 2019 Rise Set
Actual Time 7:35 AM CDT 6:53 PM CDT
Civil Twilight 7:04 AM CDT 7:23 PM CDT
Nautical Twilight 6:29 AM CDT 7:59 PM CDT
Astronomical Twilight 5:54 AM CDT 8:34 PM CDT
Moon 5:15 PM CDT (10/8) 2:00 AM CDT (10/8)
Length of Visible Light 12h 19m
Length of Day
11h 18m
Waxing Gibbous, 78% of the Moon is Illuminated
Oct 8
Waxing Gibbous
Oct 13
Full
Oct 21
Last Quarter
Oct 27
New
Nov 4
First Quarter

Hourly Weather History & Observations

Time (CDT) Temp. Dew Point Humidity Pressure Visibility Wind Dir Wind Speed Gust Speed Precip Events Conditions
12:53 AM 52.0 °F 39.0 °F 61% 29.83 in 10.0 mi SSE 12.7 mph - N/A   Clear
1:53 AM 51.1 °F 39.0 °F 63% 29.81 in 10.0 mi SSE 9.2 mph - N/A   Clear
2:53 AM 50.0 °F 39.0 °F 66% 29.78 in 10.0 mi SSE 12.7 mph - N/A   Clear
3:53 AM 50.0 °F 41.0 °F 71% 29.76 in 10.0 mi SSE 13.8 mph - N/A   Clear
4:53 AM 50.0 °F 42.1 °F 74% 29.74 in 10.0 mi SSE 13.8 mph - N/A   Clear
5:53 AM 51.1 °F 43.0 °F 74% 29.73 in 10.0 mi SSE 13.8 mph - N/A   Clear
6:53 AM 51.1 °F 43.0 °F 74% 29.73 in 10.0 mi SSE 11.5 mph - N/A   Clear
7:53 AM 51.1 °F 43.0 °F 74% 29.72 in 10.0 mi SSE 13.8 mph - N/A   Clear
8:53 AM 52.0 °F 43.0 °F 71% 29.71 in 10.0 mi SSE 13.8 mph 23.0 mph N/A   Clear
9:53 AM 55.9 °F 44.1 °F 64% 29.72 in 10.0 mi South 16.1 mph 21.9 mph N/A   Clear
10:53 AM 60.1 °F 44.1 °F 55% 29.71 in 10.0 mi South 17.3 mph 27.6 mph N/A   Clear
11:53 AM 64.0 °F 45.0 °F 50% 29.70 in 10.0 mi South 18.4 mph 26.5 mph N/A   Clear
12:53 PM 66.9 °F 45.0 °F 45% 29.69 in 10.0 mi South 16.1 mph 25.3 mph N/A   Clear
1:53 PM 68.0 °F 44.1 °F 42% 29.67 in 10.0 mi South 24.2 mph 33.4 mph N/A   Clear
2:53 PM 70.0 °F 45.0 °F 41% 29.67 in 10.0 mi South 23.0 mph 31.1 mph N/A   Clear
3:53 PM 70.0 °F 46.0 °F 42% 29.67 in 10.0 mi South 16.1 mph 27.6 mph N/A   Clear
4:53 PM 70.0 °F 45.0 °F 41% 29.67 in 10.0 mi South 17.3 mph 27.6 mph N/A   Clear
5:53 PM 68.0 °F 46.0 °F 45% 29.67 in 10.0 mi South 11.5 mph 24.2 mph N/A   Clear
6:53 PM 66.0 °F 46.0 °F 48% 29.68 in 10.0 mi SSE 9.2 mph - N/A   Clear
7:53 PM 62.1 °F 48.0 °F 60% 29.69 in 10.0 mi South 9.2 mph - N/A   Clear
8:53 PM 61.0 °F 48.0 °F 62% 29.70 in 10.0 mi SSE 8.1 mph - N/A   Clear
9:53 PM 60.1 °F 48.0 °F 64% 29.70 in 10.0 mi SSE 6.9 mph - N/A   Clear
10:53 PM 59.0 °F 46.9 °F 64% 29.69 in 10.0 mi SSE 11.5 mph - N/A   Clear
11:53 PM 60.1 °F 46.9 °F 62% 29.68 in 10.0 mi SSE 15.0 mph 25.3 mph N/A   Clear